Location: Asheville, NC
(35.6000°N, 82.5500°W)
Time: 23:32:44
(UTC-05:00)

Envisat - Pass Details

Date: 13 October 2017
Orbit: 764 x 766 km, 98.2° (Epoch: 11 December)

Event Time Altitude Azimuth Distance (km) Brightness Sun altitude
Exits shadow 22:37:13 11° 307° (NW) 2,259 6.0 -44.5°
Drops below altitude 10° 22:37:20 10° 308° (NW) 2,290 6.0 -44.6°
Sets 22:40:28 0° 328° (NNW) 3,236 6.8 -45.1°
